PST,Max TemperatureF,Mean TemperatureF,Min TemperatureF,Max Dew PointF,MeanDew PointF,Min DewpointF,Max Humidity, Mean Humidity, Min Humidity, Max Sea Level PressureIn, Mean Sea Level PressureIn, Min Sea Level PressureIn, Max VisibilityMiles, Mean VisibilityMiles, Min VisibilityMiles, Max Wind SpeedMPH, Mean Wind SpeedMPH, Max Gust SpeedMPH,PrecipitationIn, CloudCover, Events, WindDirDegrees
2012-11-1,72,60,49,34,29,24,55,35,16,29.94,29.88,29.82,10,10,10,12,2,,0.00,1,,141
2012-11-2,73,58,43,29,23,15,55,31,11,29.99,29.94,29.90,10,10,10,13,1,,0.00,0,,169
2012-11-3,75,58,42,28,24,19,50,32,12,30.13,30.07,29.99,10,10,10,12,3,,0.00,0,,250
2012-11-4,79,60,42,29,24,20,51,31,12,30.25,30.18,30.13,10,10,10,10,2,,0.00,0,,259
2012-11-5,77,62,46,35,31,26,50,35,19,30.26,30.18,30.11,10,10,10,8,2,,0.00,0,,207
2012-11-6,77,61,45,36,31,26,62,38,16,30.19,30.10,30.04,10,10,10,7,1,,0.00,0,,201
2012-11-7,76,60,44,34,31,29,55,37,18,30.10,29.99,29.88,10,10,10,8,3,,0.00,0,,125
2012-11-8,73,58,43,43,37,21,60,36,18,29.86,29.69,29.62,10,10,10,30,12,50,0.06,3,,184
2012-11-9,61,49,37,39,28,8,81,39,15,29.82,29.67,29.61,10,10,9,31,16,40,0.01,5,Rain,260
2012-11-10,50,41,32,30,22,14,75,50,26,30.14,29.95,29.80,10,10,10,26,9,31,0.00,2,,276
2012-11-11,47,38,29,14,12,10,48,34,23,30.41,30.34,30.18,10,10,10,7,2,,0.00,0,,236
2012-11-12,55,40,25,14,10,3,53,33,12,30.41,30.34,30.25,10,10,10,9,2,,0.00,0,,255
2012-11-13,62,46,29,15,10,0,46,30,8,30.30,30.24,30.18,10,10,10,8,4,,0.00,0,,337
2012-11-14,63,46,28,21,16,13,52,34,14,30.24,30.18,30.12,10,10,10,8,3,,0.00,0,,245
2012-11-15,61,47,33,25,21,16,56,34,17,30.21,30.14,30.10,10,10,10,9,4,,0.00,3,,202
2012-11-16,63,53,43,34,26,18,54,37,18,30.12,30.06,30.02,10,10,10,12,4,,0.00,6,Rain,64
2012-11-17,66,56,46,37,34,31,61,47,34,30.07,30.03,29.97,10,10,10,15,4,21,0.00,6,,247
2012-11-18,62,50,39,40,35,32,79,59,38,30.15,30.07,30.00,10,10,10,9,3,,0.00,0,,153
2012-11-19,63,50,37,37,33,30,75,55,35,30.26,30.22,30.14,10,10,7,10,2,,0.00,0,,239
2012-11-20,67,52,37,36,32,29,72,55,29,30.24,30.16,30.08,10,10,10,8,3,,0.00,0,,277
2012-11-21,64,50,36,34,31,27,75,52,29,30.11,30.07,30.02,10,10,10,10,4,,0.00,0,,215
2012-11-22,69,52,36,31,28,27,67,46,23,30.31,30.21,30.11,10,10,10,7,4,,0.00,0,,268
2012-11-23,69,52,35,28,24,21,63,40,16,30.38,30.30,30.25,10,10,10,10,3,,0.00,0,,261
2012-11-24,68,51,34,25,21,18,55,38,16,30.26,30.16,30.05,10,10,10,9,3,,0.00,0,,276
2012-11-25,69,51,33,22,20,16,55,36,14,30.04,29.99,29.92,10,10,10,9,4,,0.00,1,,287
2012-11-26,66,52,37,22,20,18,49,35,15,30.20,30.12,30.02,10,10,10,9,4,,0.00,0,,255
2012-11-27,62,46,30,24,21,17,57,39,21,30.27,30.20,30.15,10,10,10,8,3,,0.00,1,,281
2012-11-28,66,51,36,25,23,21,59,38,19,30.19,30.11,30.02,10,10,10,16,4,,0.00,1,,22
2012-11-29,66,53,40,40,33,24,68,48,34,30.14,30.08,30.03,10,10,10,18,6,,0.00,0,,34
2012-11-30,66,52,39,43,36,28,77,54,24,30.07,30.00,29.94,10,10,10,31,6,41,0.01,1,,152